Location: New Mesquite
(33.1168°N, 96.4336°W)
Time: 13:57:01
(UTC+00:00)

Okean 1 - Pass Details

Date: 08 July 2022
Orbit: 532 x 552 km, 82.5° (Epoch: 18 August)

Event Time Altitude Azimuth Distance (km) Brightness Sun altitude
Rises 08:24:57 0° 10° (N) 2,682 7.9 -28.1°
Reaches altitude 10° 08:27:28 10° 25° (NNE) 1,786 6.9 -27.9°
Maximum altitude 08:30:34 22° 78° (ENE) 1,193 5.4 -27.5°
Enters shadow 08:31:10 21° 92° (E) 1,219 5.3 -27.5°
